Terug naar catalogus

HULIANWANG DIGUI-71

ActiefCommunicatiePO
NORAD 65231·PAYLOAD·🇨🇳 China

Gelanceerd Aug 17, 2025 vanaf Taiyuan Satellite Launch Center

Loading…

Volgende Passages (komende 24 uur)

TLE

VersSource: Space-Track

Epoch: Sep 14, 2026, 22:25 UTC

1 65231U 25178D   26257.93464886  .00000056  00000-0  95343-4 0  9999
2 65231  86.5058 343.3026 0001592 106.2455 253.8855 13.24413460 52193

Volg HULIANWANG DIGUI-71 in realtime met AllMySat

Download on the App Store